OBJECT BK (43815 NORAD) Tracking and Keplerian Element Data

This shows tracking and keplerian element data for the satellite.

Feedback or suggestion? Click here.




ElementValue
Catalog43815
NameOBJECT BK
Epoch Orbit433
Epoch Day3.80281919
Epoch Year2019
RAAN77.6597
Inclination97.7639
Eccentricity0.0014391
Argument of Perigee159.6787
Mean Anonmoly200.501
Mean Motion14.95225806
Decay Rate2.58E-06
L11 43815U 18099BK 19003.80281919 .00000258 00000-0 28731-4 0 9999
L22 43815 97.7639 77.6597 0014391 159.6787 200.5010 14.95225806 4336

Live tracking and technical data element details for OBJECT BK (NORAD 43815). OBJECT BK can be tracked NOW for your location showing map with azimuth and elevation plus other details from your city location.

Track the satellite on the map from your city or location and see movement details for azimuth, elevation, latitude, longitude, range, height, and movement on the map or in text.







IsCatalogInMostPopularTable: catalog: 43815, numindb: 18
Update: records affected: 1



GetName: 43815 OBJECT BK

Hit Count: updated at: Thu, 17 Jan 2019 15:54:46 GMT